Location: Exeidioux
(45.6312°N, 1.6819°E)
Time: 12:31:26
(UTC+00:00)

USA 308 - Pass Details

Date: 03 March 2021
Orbit: 571 x 574 km, 54.0° (Epoch: 10 April)

Event Time Altitude Azimuth Distance (km) Brightness Sun altitude
Rises 18:25:30 0° 276° (W) 2,778 8.7 -8.2°
Reaches altitude 10° 18:28:00 10° 288° (WNW) 1,880 6.9 -8.7°
Maximum altitude 18:31:45 29° 349° (N) 1,066 4.4 -9.3°
Drops below altitude 10° 18:35:31 10° 51° (NE) 1,880 5.1 -10.0°
Enters shadow 18:35:59 - 54° (NE) 2,040 5.2 -10.0°
